TimeEDT,TemperatureF,Dew PointF,Humidity,Sea Level PressureIn,VisibilityMPH,Wind Direction,Wind SpeedMPH,Gust SpeedMPH,PrecipitationIn,Events,Conditions,WindDirDegrees,DateUTC
12:15 AM,48.9,42.8,79,30.18,10.0,Calm,Calm,-,N/A,,Mostly Cloudy,0,2012-09-28 04:15:00
12:35 AM,50.2,42.8,76,30.18,10.0,East,3.5,-,N/A,,Mostly Cloudy,80,2012-09-28 04:35:00
1:14 AM,51.8,41.0,67,30.18,10.0,Calm,Calm,-,N/A,,Overcast,0,2012-09-28 05:14:00
1:35 AM,51.8,42.4,70,30.17,10.0,Calm,Calm,-,N/A,,Overcast,0,2012-09-28 05:35:00
1:55 AM,51.1,42.4,72,30.17,10.0,Calm,Calm,-,N/A,,Overcast,0,2012-09-28 05:55:00
2:14 AM,50.9,42.4,73,30.17,10.0,Calm,Calm,-,N/A,,Overcast,0,2012-09-28 06:14:00
2:35 AM,50.7,42.8,74,30.17,10.0,Calm,Calm,-,N/A,,Overcast,0,2012-09-28 06:35:00
2:55 AM,50.9,43.7,76,30.17,10.0,Calm,Calm,-,N/A,,Overcast,0,2012-09-28 06:55:00
3:14 AM,52.0,43.7,73,30.17,10.0,Calm,Calm,-,N/A,,Overcast,0,2012-09-28 07:14:00
3:35 AM,51.3,43.7,75,30.17,10.0,Calm,Calm,-,N/A,,Overcast,0,2012-09-28 07:35:00
3:55 AM,51.1,44.8,79,30.16,10.0,Calm,Calm,-,N/A,,Overcast,0,2012-09-28 07:55:00
4:14 AM,50.5,44.8,81,30.16,10.0,Calm,Calm,-,N/A,,Overcast,0,2012-09-28 08:14:00
4:35 AM,50.5,44.1,78,30.17,10.0,Calm,Calm,-,N/A,,Overcast,0,2012-09-28 08:35:00
4:55 AM,50.2,44.2,80,30.16,10.0,Calm,Calm,-,N/A,,Overcast,0,2012-09-28 08:55:00
5:15 AM,48.9,43.5,82,30.16,10.0,Calm,Calm,-,N/A,,Overcast,0,2012-09-28 09:15:00
5:35 AM,49.3,43.9,82,30.15,10.0,Calm,Calm,-,N/A,,Mostly Cloudy,0,2012-09-28 09:35:00
5:55 AM,48.9,43.7,82,30.15,10.0,Calm,Calm,-,N/A,,Scattered Clouds,0,2012-09-28 09:55:00
6:15 AM,47.3,42.6,84,30.15,10.0,Calm,Calm,-,N/A,,Mostly Cloudy,0,2012-09-28 10:15:00
6:35 AM,46.8,42.6,85,30.15,10.0,Calm,Calm,-,N/A,,Overcast,0,2012-09-28 10:35:00
6:54 AM,46.0,42.3,87,30.15,10.0,Calm,Calm,-,N/A,,Overcast,0,2012-09-28 10:54:00
7:15 AM,44.6,41.4,88,30.15,10.0,Calm,Calm,-,N/A,,Scattered Clouds,0,2012-09-28 11:15:00
7:35 AM,45.0,42.1,90,30.15,10.0,Calm,Calm,-,N/A,,Clear,0,2012-09-28 11:35:00
7:54 AM,45.5,42.4,89,30.16,10.0,Calm,Calm,-,N/A,,Clear,0,2012-09-28 11:54:00
8:15 AM,46.0,43.0,89,30.16,10.0,Calm,Calm,-,N/A,,Clear,0,2012-09-28 12:15:00
8:35 AM,48.7,45.5,89,30.16,10.0,Calm,Calm,-,N/A,,Clear,0,2012-09-28 12:35:00
8:54 AM,51.1,47.1,86,30.17,10.0,Calm,Calm,-,N/A,,Clear,0,2012-09-28 12:54:00
9:15 AM,53.2,46.4,78,30.17,10.0,Calm,Calm,-,N/A,,Clear,0,2012-09-28 13:15:00
9:35 AM,55.0,46.4,73,30.17,10.0,Calm,Calm,-,N/A,,Clear,0,2012-09-28 13:35:00
9:54 AM,56.3,46.2,69,30.17,10.0,Calm,Calm,-,N/A,,Clear,0,2012-09-28 13:54:00
10:15 AM,58.6,45.5,62,30.17,10.0,Calm,Calm,-,N/A,,Clear,0,2012-09-28 14:15:00
10:34 AM,60.8,43.2,52,30.18,10.0,Calm,Calm,-,N/A,,Clear,0,2012-09-28 14:34:00
10:55 AM,61.5,39.7,45,30.18,10.0,Calm,Calm,-,N/A,,Clear,0,2012-09-28 14:55:00
11:15 AM,63.3,37.8,39,30.18,10.0,Calm,Calm,-,N/A,,Clear,0,2012-09-28 15:15:00
11:34 AM,62.8,37.6,39,30.18,10.0,Calm,Calm,-,N/A,,Clear,0,2012-09-28 15:34:00
11:55 AM,64.2,37.0,37,30.17,10.0,Calm,Calm,-,N/A,,Scattered Clouds,0,2012-09-28 15:55:00
12:15 PM,65.3,36.3,34,30.17,10.0,SSW,4.6,-,N/A,,Scattered Clouds,210,2012-09-28 16:15:00
12:35 PM,65.3,36.3,34,30.17,10.0,SW,4.6,-,N/A,,Mostly Cloudy,230,2012-09-28 16:35:00
12:55 PM,63.9,36.7,37,30.17,10.0,NW,4.6,-,N/A,,Mostly Cloudy,320,2012-09-28 16:55:00
1:15 PM,66.6,36.3,33,30.16,10.0,Calm,Calm,-,N/A,,Mostly Cloudy,0,2012-09-28 17:15:00
1:35 PM,64.2,38.5,39,30.15,10.0,NW,5.8,-,N/A,,Mostly Cloudy,320,2012-09-28 17:35:00
1:55 PM,65.5,37.0,35,30.15,10.0,Calm,Calm,-,N/A,,Scattered Clouds,0,2012-09-28 17:55:00
2:14 PM,65.3,36.9,35,30.13,10.0,WNW,3.5,-,N/A,,Scattered Clouds,290,2012-09-28 18:14:00
2:35 PM,66.9,36.9,33,30.12,10.0,NNW,5.8,-,N/A,,Mostly Cloudy,330,2012-09-28 18:35:00
2:55 PM,66.4,37.0,34,30.12,10.0,Calm,Calm,-,N/A,,Mostly Cloudy,0,2012-09-28 18:55:00
3:14 PM,67.3,38.3,35,30.12,10.0,West,4.6,-,N/A,,Overcast,280,2012-09-28 19:14:00
3:35 PM,69.1,37.0,31,30.12,10.0,NNW,5.8,-,N/A,,Mostly Cloudy,330,2012-09-28 19:35:00
3:55 PM,68.4,36.3,31,30.11,10.0,West,6.9,-,N/A,,Scattered Clouds,270,2012-09-28 19:55:00
4:14 PM,68.9,37.2,31,30.10,10.0,WNW,6.9,-,N/A,,Mostly Cloudy,300,2012-09-28 20:14:00
4:35 PM,68.7,37.0,31,30.10,10.0,NW,6.9,-,N/A,,Scattered Clouds,310,2012-09-28 20:35:00
4:55 PM,68.9,36.1,30,30.10,10.0,NW,5.8,-,N/A,,Clear,320,2012-09-28 20:55:00
5:14 PM,66.4,37.2,34,30.09,10.0,NW,5.8,-,N/A,,Clear,320,2012-09-28 21:14:00
5:35 PM,65.3,38.7,38,30.08,10.0,NW,3.5,-,N/A,,Clear,310,2012-09-28 21:35:00
5:55 PM,65.5,39.2,38,30.08,10.0,WNW,3.5,-,N/A,,Clear,300,2012-09-28 21:55:00
6:15 PM,66.7,37.6,34,30.09,10.0,NW,5.8,-,N/A,,Mostly Cloudy,310,2012-09-28 22:15:00
6:35 PM,65.3,37.8,36,30.08,10.0,NW,4.6,-,N/A,,Scattered Clouds,310,2012-09-28 22:35:00
6:55 PM,63.7,39.2,41,30.08,10.0,NW,3.5,-,N/A,,Clear,320,2012-09-28 22:55:00
7:15 PM,61.9,40.3,45,30.08,10.0,Calm,Calm,-,N/A,,Clear,0,2012-09-28 23:15:00
7:35 PM,59.7,41.0,50,30.08,10.0,Calm,Calm,-,N/A,,Clear,0,2012-09-28 23:35:00
7:54 PM,57.9,41.9,55,30.08,10.0,Calm,Calm,-,N/A,,Clear,0,2012-09-28 23:54:00
8:15 PM,56.7,41.4,57,30.08,10.0,Calm,Calm,-,N/A,,Clear,0,2012-09-29 00:15:00
8:35 PM,57.2,41.4,55,30.08,10.0,Calm,Calm,-,N/A,,Clear,0,2012-09-29 00:35:00
8:55 PM,55.9,41.4,58,30.08,10.0,Calm,Calm,-,N/A,,Clear,0,2012-09-29 00:55:00
9:15 PM,54.7,41.5,61,30.08,10.0,Calm,Calm,-,N/A,,Clear,0,2012-09-29 01:15:00
9:34 PM,54.0,41.9,64,30.09,10.0,Calm,Calm,-,N/A,,Clear,0,2012-09-29 01:34:00
9:55 PM,55.0,40.3,58,30.09,10.0,Calm,Calm,-,N/A,,Clear,0,2012-09-29 01:55:00
10:15 PM,55.9,39.0,53,30.09,10.0,Calm,Calm,-,N/A,,Clear,0,2012-09-29 02:15:00
10:34 PM,51.4,39.9,65,30.09,10.0,Calm,Calm,-,N/A,,Clear,0,2012-09-29 02:34:00
10:55 PM,48.2,39.9,73,30.09,10.0,Calm,Calm,-,N/A,,Clear,0,2012-09-29 02:55:00
11:15 PM,48.4,41.9,78,30.09,10.0,Calm,Calm,-,N/A,,Clear,0,2012-09-29 03:15:00
11:34 PM,48.2,42.1,79,30.09,10.0,Calm,Calm,-,N/A,,Clear,0,2012-09-29 03:34:00
11:55 PM,47.7,41.9,80,30.10,10.0,Calm,Calm,-,N/A,,Clear,0,2012-09-29 03:55:00